[Date Prev][Date Next][Thread Prev][Thread Next] - [Date Index][Thread Index][Author Index]

2 Line ISS Keps 6-19



ISS
1 25544U 98067A   05170.08546743  .00016084  00000-0  11977-3 0  7186
2 25544 051.6463 251.1739 0004107 277.1639 161.2008 15.72966462375980
----
Via the sarex mailing list at AMSAT.ORG courtesy of AMSAT-NA.
To unsubscribe, send "unsubscribe sarex" to Majordomo@amsat.org



AMSAT Top AMSAT Home